Location: Zagreb
(45.8150°N, 15.9819°E)
Time: 13:55:15
(UTC+02:00)

STARLINK-1662 - Pass Details

Date: 20 September 2020
Orbit: 378 x 381 km, 53.0° (Epoch: 20 October)

Event Time Altitude Azimuth Distance (km) Brightness Sun altitude
Exits shadow 05:48:10 - 300° (WNW) 1,489 5.4 -9.9°
Reaches altitude 10° 05:48:25 10° 303° (WNW) 1,405 5.3 -9.9°
Maximum altitude 05:50:56 21° 356° (N) 915 4.8 -9.5°
Drops below altitude 10° 05:53:27 10° 49° (NE) 1,407 6.8 -9.0°
Sets 05:55:49 0° 66° (ENE) 2,261 8.6 -8.6°
